Regional Weather Roundup
Issued by NWS

Home | Current Version | Previous Version | Graphics & Text | Print | Product List | Glossary On
Versions: 1 2 3 4 5 6 7 8 9 10 11 12 13 14 15 16 17 18 19 20 21 22 23 24 25 26 27 28 29 30 31 32 33 34 35 36 37 38 39 40 41 42 43 44 45 46 47 48 49 50
000
ASUS43 KLOT 261403
RWRIL

ILLINOIS REGIONAL WEATHER ROUNDUP
NATIONAL WEATHER SERVICE CHICAGO/ROMEOVILLE IL
900 AM CDT TUE JUL 26 2016

NOTE: "FAIR" INDICATES FEW OR NO CLOUDS BELOW 12,000 FEET WITH NO
SIGNIFICANT WEATHER AND/OR OBSTRUCTIONS TO VISIBILITY.

* THESE STATIONS ARE NOT UNDER NWS QUALITY CONTROL. THEY ALSO MAY NOT
  REPORT WEATHER SUCH AS PRECIPITATION OR FOG.

ILZ001-002-007-009-015-016-024-261500-
NORTHWEST ILLINOIS

CITY           SKY/WX    TMP DP  RH WIND       PRES   REMARKS
MOLINE         SUNNY     78  66  66 E7        30.06F HX  80
STERLING*      SUNNY     76  69  79 E5        30.08R
SAVANNA*       SUNNY     76  67  73 CALM      30.07S
$$

ILZ003-004-008-010-011-017-018-261500-
NORTH CENTRAL ILLINOIS

CITY           SKY/WX    TMP DP  RH WIND       PRES   REMARKS
ROCKFORD       MOSUNNY   79  64  60 VRB3      30.08F HX  81
FREEPORT*      SUNNY     73  66  78 CALM      30.10S
ROCHELLE*      SUNNY     76  68  77 NE5       30.08S
DE KALB*       SUNNY     77  67  72 NE6       30.08F
$$

ILZ005-006-012>014-019>023-261500-
NORTHEAST ILLINOIS

CITY           SKY/WX    TMP DP  RH WIND       PRES   REMARKS
CHICAGO-OHARE  MOSUNNY   79  64  60 CALM      30.06S HX  81
CHICAGO-MIDWAY MOSUNNY   81  62  52 E3        30.06S HX  82
AURORA         SUNNY     80  70  71 NE5       30.07S HX  83
LANSING*       MOSUNNY   79  62  56 E5        30.08R HX  80
WAUKEGAN       SUNNY     79  64  60 CALM      30.06S HX  81
DUPAGE AIRPORT SUNNY     80  66  62 CALM      30.07S HX  82
KANKAKEE*      SUNNY     78  66  66 SE6       30.08R HX  80
WHEELING       SUNNY     80  65  59 NE3       30.07S HX  82
MORRIS*        SUNNY     76  71  85 CALM      30.05S
NORTHERLY ISL    N/A     78  64  61 NE3         N/A  HX  80
$$

LMZ740>746-261500-
SOUTHERN LAKE MICHIGAN

STATION/POSITION SKY/WX   TEMP    WIND        PRES    VSBY  WAVE
                          AIR SEA DIR/SP/G                  HT/PER
                          (F)     (DEG/KT/KT) (MB)    (MI)  (FT/S)
SOUTHERN BUOY              73 73  290/  4/  4 1017.3
WILMETTE HARBOR            70 68  340/  2/  2   N/A           0
HARRISON CRIB              75      40/  4/  4   N/A
BURNHAM HARBOR             78      40/  4/  5   N/A
CALUMET HARBOR             76      CALM  /  2 1017.5F
BURNS HARBOR               73        CALM     1018.6S
MICHIGAN CITY              75      30/  4/  4   N/A
MICHIGAN CITY 6N           76 74   CALM  /  2   N/A           0
ST. JOSEPH                 74 75  110/  2/  2 1017.9F         0
$$

ILZ025>027-034>036-040-047-049-050-058-095>099-261500-
WEST-CENTRAL ILLINOIS

CITY           SKY/WX    TMP DP  RH WIND       PRES   REMARKS
QUINCY         SUNNY     76  68  76 E8        30.07R
GALESBURG*     SUNNY     77  67  70 CALM      30.08S
MACOMB*        SUNNY     76  69  80 E5        30.09S
JACKSONVILLE*  PTSUNNY   78  70  77 NE5       30.06S
PITTSFIELD*    SUNNY     78  71  79 NE5       30.08S HX  80
$$

ILZ028>032-037-038-041>044-048-051>054-059>061-261500-
CENTRAL ILLINOIS

CITY           SKY/WX    TMP DP  RH WIND       PRES   REMARKS
PONTIAC        MOSUNNY   78  74  87 CALM      30.07  HX  81
BLOOMINGTON    SUNNY     77  70  79 E3        30.08S
DECATUR        MOSUNNY   81  64  56 E9        30.06S HX  82
PEORIA         MOSUNNY   80  69  69 NE3       30.06S HX  83
LACON*         MOSUNNY   76  67  73 CALM      30.06R
LINCOLN*       SUNNY     79  72  81 E3        30.06S HX  81
SPRINGFIELD    SUNNY     80  70  71 NE6       30.06S HX  83
TAYLORVILLE    MOSUNNY   78  71  80 MISG      30.05S HX  80
$$

ILZ033-039-045-046-055>057-062-063-261500-
EAST-CENTRAL ILLINOIS

CITY           SKY/WX    TMP DP  RH WIND       PRES   REMARKS
CHAMPAIGN      MOSUNNY   76  66  71 E8        30.07S
MATTOON        CLOUDY    72  67  84 NE7       30.05R
PARIS*         RAIN      66  64  93 E3        30.08S
$$

ILZ079-100>102-261500-
SOUTHWEST ILLINOIS

CITY           SKY/WX    TMP DP  RH WIND       PRES   REMARKS
ALTON          PTSUNNY   77  73  88 NE8       30.05R
BELLEVILLE     CLOUDY    79  79 100 N2        30.02S HX  83
CAHOKIA*       CLOUDY    80  74  81 NE5       30.03S HX  85
SPARTA*        CLOUDY    78  75  91 CALM      30.05R HX  81
$$

ILZ064>066-069>071-074>076-080>082-084>086-088>090-092>094-261500-
SOUTH-CENTRAL ILLINOIS

CITY           SKY/WX    TMP DP  RH WIND       PRES   REMARKS
CARBONDALE     PTSUNNY   80  75  84 NW3       30.03S HX  85
CAIRO*         MOSUNNY   80  78  94 CALM      30.03S FOG     HX  85
EFFINGHAM*     MOSUNNY   73  73 100 CALM      30.06S
MARION         CLOUDY    79  79 100 NW6       30.04S FOG     HX  83
MT. VERNON     CLOUDY    75  72  88 CALM      30.04R
CENTRALIA*     CLOUDY    78  74  88 CALM      30.03S HX  80
SALEM*         CLOUDY    76  73  87 CALM      30.05S
METROPOLIS*    SUNNY     82  75  79 NW3       30.04S HX  88
$$

ILZ067-068-072-073-078-083-087-091-261500-
SOUTHEAST ILLINOIS

CITY           SKY/WX    TMP DP  RH WIND       PRES   REMARKS
LAWRENCEVILLE  CLOUDY    74  71  91 N9        30.05S
FLORA*         LGT RAIN  76  73  88 E3        30.04S
FAIRFIELD*     CLOUDY    76  74  95 NE6       30.03S
HARRISBURG*    CLOUDY    77  77  99 CALM      30.04R FOG
ROBINSON*      TSTM      69  68  98 NE3       30.06F
CARMI*         CLOUDY    77  76  96 CALM      30.03S FOG
$$

ABBREVIATIONS USED IN REMARKS
   TC - TEMPERATURE IN CELSIUS
  WCI - WIND CHILL INDEX
   HX - HEAT INDEX
  VSB - VISIBILITY
$$




USA.gov is the U.S. government's official web portal to all federal, state and local government web resources and services.